[[{"header":{"parameterUnit":"m.s-1","parameterCategory":1,"la1":30.2991,"la2":30.254,"lo1":-89.0895,"lo2":-89.0444,"dy":0.0017,"dx":0.0017,"nx":28,"ny":28,"refTime":"2025-07-13T21:00:00:Z","depth":0,"parameterNumber":2,"parameterNumberName":"U-component_of_WINDS"},"data":[0,0,0,0,0,0,0,0,0,0,0,0,0,0,0,0,0,0,0,0,0,0,0,0,0,0,0,0,0,0,0,0,0,0,0,0,0,0,0,0,0,0,0,0,0,0,0,0,0,0,0,0,0,0,0,0,0,0,1.5765,1.5766,0,1.5857,1.5858,1.5859,1.5845,1.5844,1.5842,1.5841,1.5939,1.5942,1.5946,0,0,0,0,0,0,0,0,0,0,0,0,0,1.5583,1.5586,1.5765,1.5766,1.5768,1.5857,1.5858,1.5859,1.5846,1.5844,1.5842,1.584,1.5937,1.5942,1.5947,0,0,0,0,0,0,0,0,0,0,0,0,0,1.5667,1.5587,1.5765,1.5771,1.5773,1.5857,1.5858,1.586,1.5846,1.5844,1.5841,1.5839,1.5936,1.5941,1.5947,1.6032,0,0,1.5966,1.5969,0,0,0,0,0,0,0,0,1.5662,1.5674,1.5769,1.5771,1.5773,1.5837,1.5829,1.5918,1.5847,1.5818,1.5841,1.5838,1.5907,1.5915,1.5938,1.6036,1.6041,1.5967,1.597,1.5973,1.5975,0,0,0,0,0,0,0,1.5656,1.567,1.5802,1.5771,1.5773,1.5771,1.578,1.5846,1.5875,1.5821,1.582,1.5831,1.5908,1.5932,1.594,1.6042,1.5966,1.5972,1.5976,1.5978,1.6216,1.6219,0,0,0,0,0,0,1.5648,1.5665,1.5799,1.5804,1.5711,1.5776,1.5787,1.5819,1.5874,1.588,1.5833,1.583,1.5923,1.5933,1.5943,1.6047,1.5973,1.5979,1.5982,1.6213,1.6217,1.622,0,0,0,0,0,0,1.5644,1.566,1.5795,1.5735,1.5752,1.5782,1.5818,1.5822,1.5846,1.5883,1.5888,1.5852,1.5921,1.5935,1.601,1.605,1.5981,1.5987,1.621,1.6214,1.6218,1.6254,0,0,0,0,0,0,1.5639,1.5659,1.569,1.5735,1.5755,1.5859,1.5821,1.5826,1.5856,1.5854,1.5903,1.5909,1.592,1.6001,1.6016,1.6057,1.5992,1.6207,1.6212,1.6217,1.6249,1.6258,1.6266,0,0,0,0,0,1.5633,1.5697,1.5692,1.5708,1.5794,1.5861,1.5873,1.5884,1.586,1.5892,1.5916,1.5907,1.6043,1.6009,1.6026,1.6069,1.6204,1.6211,1.6217,1.6245,1.6257,1.6266,0,0,0,0,0,0,1.5657,1.5703,1.5698,1.5779,1.5816,1.5859,1.59,1.5895,1.5942,1.5937,1.595,1.5961,1.6038,1.6061,1.6022,1.6154,1.6121,1.613,1.6137,1.6148,1.6156,1.615,1.5997,0,0,0,0,0,1.5672,1.5721,1.5759,1.5827,1.5846,1.587,1.5899,1.5905,1.5945,1.5961,1.599,1.603,1.6082,1.6116,1.6166,1.6252,1.6264,1.629,1.6299,1.6306,1.6315,1.6364,1.6376,1.6239,1.6239,1.6239,0,0,1.5703,1.5734,1.5765,1.5833,1.5862,1.5915,1.5883,1.594,1.5979,1.597,1.6043,1.6065,1.6111,1.6193,1.623,1.6214,1.6355,1.6314,1.6319,1.6324,1.6371,1.6384,1.6396,1.6244,1.6243,1.6242,0,0,1.5787,1.5815,1.5875,1.5905,1.595,1.5965,1.598,1.6024,1.6038,1.6111,1.6106,1.6153,1.6242,1.6275,1.6304,1.64,1.6395,1.6416,1.6462,1.6509,1.652,1.653,1.6566,1.6578,1.6424,1.6425,1.6425,0,1.582,1.5897,1.5906,1.5964,1.5994,1.5987,1.6049,1.6078,1.6138,1.616,1.6141,1.6252,1.6283,1.6372,1.6396,1.6419,1.6437,1.6411,1.6518,1.6528,1.6537,1.6571,1.6585,1.6427,1.6427,1.6426,1.6426,0,1.5937,1.5991,1.6034,1.6091,1.6126,1.6186,1.6205,1.624,1.6242,1.626,1.6336,1.6372,1.6429,1.645,1.6454,1.6541,1.653,1.6514,1.6481,1.6552,1.6585,1.6598,1.6431,1.643,1.6429,1.6428,0,0,1.604,1.61,1.6116,1.6142,1.6191,1.6234,1.6293,1.6348,1.6379,1.642,1.6472,1.6547,1.6533,1.6565,1.6572,1.6613,1.669,1.6593,1.6594,1.6611,1.679,1.6803,1.6818,1.6685,1.6688,1.669,1.6787,0,1.6129,1.6233,1.6243,1.6337,1.6388,1.6382,1.6434,1.647,1.6489,1.6536,1.6557,1.661,1.6587,1.6606,1.6647,1.6672,1.6726,1.6665,1.6735,1.6738,1.6725,1.6835,1.6848,1.6938,1.68,1.6802,1.6803,0,1.6247,1.6291,1.639,1.6433,1.6455,1.6501,1.6553,1.6597,1.6639,1.665,1.6686,1.6688,1.6751,1.6714,1.6802,1.676,1.6789,1.6805,1.6809,1.6817,1.6776,1.6847,1.6967,1.6981,1.6823,1.6822,1.682,0,1.6314,1.6398,1.6468,1.649,1.6542,1.6575,1.6598,1.6638,1.667,1.6716,1.6738,1.679,1.682,1.6861,1.6877,1.6848,1.6965,1.6929,1.6977,1.6977,1.7003,1.7001,1.713,1.702,1.7019,1.7019,1.7019,0,1.6414,1.6475,1.6499,1.6542,1.6611,1.6622,1.669,1.6712,1.6747,1.6796,1.6794,1.684,1.6858,1.6907,1.692,1.6992,1.7005,1.7016,1.7019,1.7017,1.7016,1.7038,1.7032,1.7023,1.7022,1.7021,1.7021,0,1.65,1.6519,1.6595,1.6637,1.6649,1.6698,1.6735,1.6778,1.6795,1.6857,1.6872,1.6901,1.6959,1.6978,1.7049,1.7058,1.7141,1.7138,1.7127,1.7128,1.7175,1.7171,1.7324,1.7345,1.7219,1.722,1.7221,0,1.6563,1.661,1.6657,1.6689,1.6713,1.6765,1.6798,1.6811,1.6846,1.6898,1.6935,1.6992,1.7038,1.7131,1.7159,1.7213,1.7213,1.7262,1.7221,1.7218,1.7215,1.7213,1.7218,1.727,1.7272,1.7273,1.7274,0,1.6674,1.6681,1.6728,1.6779,1.6818,1.6859,1.6899,1.6926,1.6945,1.6985,1.7043,1.7079,1.7151,1.7208,1.7263,1.7289,1.7286,1.7286,1.7301,1.73,1.7292,1.7298,1.715,1.7283,1.7282,1.7281,1.7281,1.7281,1.6752,1.6794,1.6833,1.6886,1.6917,1.6955,1.6997,1.702,1.7068,1.7127,1.7132,1.7196,1.7238,1.7311,1.7339,1.739,1.7377,1.7397,1.7402,1.7408,1.7412,1.7282,1.74,1.74,1.74,1.74,1.74,0,1.6864,1.6889,1.6937,1.6993,1.7035,1.7026,1.707,1.7106,1.7162,1.72,1.7246,1.7314,1.737,1.7402,1.7458,1.7492,1.7492,1.7507,1.7505,1.7511,1.742,1.7403,1.7506,1.7506,1.7506,1.7506,1.7506,1.7506,1.6927,1.6997,1.7009,1.7095,1.712,1.7181,1.7207,1.7242,1.7273,1.7349,1.7395,1.7415,1.7451,1.751,1.7561,1.7569,1.7591,1.7607,1.7614,1.7529,1.7518,1.7507,1.7491,1.7611,1.7611,1.7701,1.7702,1.7703]},{"header":{"parameterUnit":"m.s-1","parameterCategory":1,"la1":30.2991,"la2":30.254,"lo1":-89.0895,"lo2":-89.0444,"dy":0.0017,"dx":0.0017,"nx":28,"ny":28,"refTime":"2025-07-13T21:00:00:Z","depth":0,"parameterNumber":3,"parameterNumberName":"V-component_of_WINDS"},"data":[0,0,0,0,0,0,0,0,0,0,0,0,0,0,0,0,0,0,0,0,0,0,0,0,0,0,0,0,0,0,0,0,0,0,0,0,0,0,0,0,0,0,0,0,0,0,0,0,0,0,0,0,0,0,0,0,0,0,1.5594,1.5594,0,1.556,1.5559,1.5559,1.556,1.5561,1.5561,1.5562,1.5523,1.5521,1.552,0,0,0,0,0,0,0,0,0,0,0,0,0,1.5657,1.5656,1.5594,1.5594,1.5593,1.556,1.5559,1.5559,1.556,1.5561,1.5562,1.5562,1.5523,1.5521,1.552,0,0,0,0,0,0,0,0,0,0,0,0,0,1.5627,1.5655,1.5594,1.559,1.559,1.556,1.5559,1.5558,1.556,1.5561,1.5562,1.5562,1.5524,1.5522,1.5519,1.549,0,0,1.5512,1.5512,0,0,0,0,0,0,0,0,1.5628,1.5624,1.5591,1.559,1.559,1.5565,1.5567,1.5535,1.556,1.5571,1.5562,1.5563,1.5536,1.5533,1.5525,1.5488,1.5487,1.5512,1.5511,1.551,1.5509,0,0,0,0,0,0,0,1.563,1.5626,1.558,1.5591,1.559,1.5588,1.5585,1.5561,1.555,1.557,1.557,1.5566,1.5536,1.5527,1.5524,1.5486,1.5512,1.551,1.5509,1.5508,1.542,1.542,0,0,0,0,0,0,1.5634,1.5627,1.5581,1.5579,1.5611,1.5587,1.5583,1.5572,1.555,1.5547,1.5566,1.5567,1.553,1.5526,1.5522,1.5484,1.551,1.5508,1.5507,1.5421,1.542,1.5419,0,0,0,0,0,0,1.5635,1.563,1.5583,1.5603,1.5597,1.5585,1.5573,1.5571,1.5562,1.5547,1.5544,1.5559,1.5531,1.5525,1.5498,1.5483,1.5507,1.5505,1.5423,1.5421,1.542,1.5409,0,0,0,0,0,0,1.5637,1.563,1.562,1.5603,1.5596,1.556,1.5572,1.557,1.5559,1.5559,1.554,1.5537,1.5531,1.5501,1.5495,1.548,1.5503,1.5424,1.5422,1.542,1.541,1.5407,1.5404,0,0,0,0,0,1.5639,1.5619,1.562,1.5614,1.5584,1.556,1.5555,1.555,1.5558,1.5546,1.5536,1.5538,1.5486,1.5498,1.5492,1.5476,1.5425,1.5422,1.542,1.5412,1.5408,1.5404,0,0,0,0,0,0,1.5634,1.5617,1.5618,1.5591,1.5577,1.556,1.5546,1.5546,1.5529,1.553,1.5523,1.5518,1.5489,1.548,1.5494,1.5444,1.5456,1.5452,1.5451,1.5448,1.5445,1.5446,1.5501,0,0,0,0,0,1.563,1.5613,1.5598,1.5576,1.5569,1.5559,1.5548,1.5545,1.5529,1.5523,1.5511,1.5494,1.5474,1.546,1.5441,1.5409,1.5403,1.5395,1.5392,1.5389,1.5386,1.5365,1.536,1.5412,1.5412,1.5412,0,0,1.5621,1.5609,1.5599,1.5575,1.5563,1.5544,1.5554,1.5534,1.5518,1.5519,1.5492,1.5482,1.5463,1.5432,1.5418,1.5423,1.537,1.5387,1.5385,1.5382,1.5362,1.5357,1.5353,1.5411,1.5411,1.5411,0,0,1.5594,1.5585,1.5564,1.5552,1.5535,1.5528,1.5523,1.5505,1.5499,1.5472,1.5471,1.5452,1.5418,1.5404,1.5392,1.5357,1.5357,1.5351,1.5335,1.5314,1.531,1.5306,1.5291,1.5286,1.5348,1.5348,1.5348,0,1.5585,1.5557,1.5553,1.5532,1.552,1.5521,1.5498,1.5487,1.5463,1.5454,1.5461,1.5416,1.5404,1.5368,1.5359,1.5351,1.5342,1.5353,1.5311,1.5307,1.5304,1.5289,1.5283,1.5347,1.5347,1.5347,1.5347,0,1.5545,1.5526,1.5511,1.5488,1.5475,1.5453,1.5444,1.543,1.5428,1.5419,1.5389,1.5374,1.535,1.5342,1.534,1.5305,1.5308,1.5313,1.5324,1.5298,1.5284,1.5278,1.5346,1.5346,1.5347,1.5347,0,0,1.5514,1.5489,1.5483,1.5472,1.5452,1.5436,1.5413,1.539,1.5377,1.5361,1.5339,1.5309,1.5313,1.53,1.5295,1.5278,1.5247,1.5284,1.5284,1.5275,1.5204,1.5198,1.5192,1.5247,1.5246,1.5246,1.5204,0,1.5484,1.5444,1.5439,1.5403,1.5383,1.5383,1.5362,1.5346,1.5337,1.5317,1.5307,1.5285,1.5293,1.5284,1.5267,1.5255,1.5232,1.5258,1.5224,1.5223,1.5227,1.5185,1.5179,1.5141,1.5199,1.5198,1.5197,0,1.5443,1.5425,1.5387,1.5367,1.5359,1.5341,1.5318,1.53,1.5281,1.5275,1.5259,1.5256,1.5229,1.5243,1.5204,1.5222,1.5208,1.5199,1.5197,1.5192,1.5207,1.5175,1.5129,1.5122,1.5189,1.519,1.519,0,1.5421,1.5387,1.536,1.535,1.5327,1.5314,1.5303,1.5285,1.527,1.525,1.524,1.5217,1.5203,1.5184,1.5173,1.5185,1.5134,1.5148,1.5126,1.5126,1.5114,1.5114,1.5062,1.5109,1.5109,1.5109,1.5109,0,1.5386,1.5362,1.5349,1.5332,1.5304,1.5297,1.5269,1.5259,1.5242,1.522,1.5219,1.5198,1.5187,1.5165,1.5156,1.5123,1.5118,1.5111,1.5108,1.5109,1.511,1.5098,1.5099,1.5108,1.5108,1.5108,1.5109,0,1.5356,1.5347,1.5316,1.5296,1.529,1.527,1.5252,1.5234,1.5225,1.5197,1.519,1.5175,1.5148,1.5136,1.5103,1.5097,1.5058,1.5059,1.5065,1.5063,1.5041,1.5042,1.4977,1.4966,1.5024,1.5023,1.5023,0,1.5333,1.5315,1.5292,1.5278,1.5267,1.5245,1.523,1.5222,1.5206,1.5181,1.5165,1.5138,1.5116,1.5072,1.5056,1.5029,1.5028,1.5007,1.5024,1.5024,1.5023,1.5023,1.502,1.5003,1.5002,1.5002,1.5002,0,1.5293,1.5288,1.5268,1.5244,1.5227,1.5208,1.5189,1.5178,1.5166,1.5148,1.512,1.5103,1.5068,1.5039,1.5011,1.4998,1.4996,1.4997,1.4989,1.4989,1.4992,1.4986,1.5053,1.4998,1.4998,1.4998,1.4999,1.4999,1.5264,1.5246,1.5227,1.5203,1.5188,1.517,1.5151,1.5139,1.5116,1.5087,1.5083,1.5053,1.503,1.4993,1.4978,1.4952,1.4957,1.4948,1.4945,1.4942,1.4939,1.4998,1.4948,1.4948,1.4948,1.4948,1.4948,0,1.522,1.5208,1.5186,1.5159,1.514,1.5142,1.512,1.5103,1.5076,1.5057,1.5034,1.5,1.4972,1.4954,1.4925,1.4907,1.4905,1.49,1.4899,1.4895,1.4938,1.4945,1.4901,1.4901,1.4901,1.4901,1.4901,1.4901,1.5196,1.5164,1.5157,1.5118,1.5105,1.5075,1.5062,1.5045,1.5028,1.4991,1.4968,1.4956,1.4936,1.4905,1.4878,1.4873,1.4861,1.4854,1.4849,1.4888,1.4893,1.4897,1.4904,1.4852,1.4852,1.4808,1.4807,1.4807]}]]